Location: Kelshall
(52.0000°N, 0.0500°W)
Time: 12:06:27
(UTC+00:00)

Cosmos 1766 - Pass Details

Date: 18 September 2020
Orbit: 522 x 543 km, 82.5° (Epoch: 22 October)

Event Time Altitude Azimuth Distance (km) Brightness Sun altitude
Exits shadow 21:09:25 46° 291° (WNW) 727 4.2 -26.3°
Drops below altitude 10° 21:13:09 10° 0° (N) 1,806 6.5 -26.8°
Sets 21:15:23 0° 7° (N) 2,706 7.4 -27.0°
